Weather Roundup
Issued by NWS

Home | Current Version | Previous Version | Text Only | Print | Product List | Glossary On
Versions: 1 2 3 4 5 6 7 8 9 10 11 12 13 14 15 16 17 18 19 20 21 22 23 24 25 26 27 28 29 30 31 32 33 34 35 36 37 38 39 40 41 42 43 44 45 46 47 48 49 50
000
NZUS93 KARX 201059
HRRWXR

CURRENT HOURLY OBSERVATIONS ACROSS
MUCH OF THE UPPER MISSISSIPPI VALLEY
NATIONAL WEATHER SERVICE LA CROSSE WI
500 AM CST THU NOV 20 2014


...SOUTHEAST MINNESOTA...


CITY           SKY/WX    TMP DP  RH WIND       PRES   REMARKS
ROCHESTER      CLEAR      8   4  83 W14       29.99S WCI  -8
ROCHESTER/MAYO FAIR      12   6  76 W17       29.99S WCI  -5
WINONA         CLEAR     18  10  73 W12G21    30.00S WCI   5
AUSTIN         CLEAR     10   7  85 NW12      30.02R WCI  -4
ALBERT LEA     NOT AVBL
DODGE CENTER   PTCLDY    10   7  85 W13       30.00R WCI  -5
PRESTON        CLEAR     10   5  83 W12       30.00R WCI  -5
OWATONNA       CLEAR      9   3  78 W8        30.03R WCI  -4
FARIBAULT      CLEAR      9   5  85 W7        30.04R WCI  -3
$$

...ELSEWHERE IN MINNESOTA...


CITY           SKY/WX    TMP DP  RH WIND       PRES   REMARKS
MINNEAPOLIS    CLEAR     12   1  61 W10       30.02R WCI  -1
INTNL FALLS    CLOUDY     6  -1  73 NW13      29.86R WCI -10
DULUTH         PTCLDY     5  -2  72 W12       29.84S WCI -11
RED WING         N/A     12   7  79 W8        30.00R WCI   1
REDWOOD FALLS  FAIR       8   3  80 W9        30.08R WCI  -5
MANKATO        CLEAR     10   3  72 W9        30.05S WCI  -2
WORTHINGTON    CLEAR      7   1  78 W12       30.07S WCI  -9
FAIRMONT       FAIR      10   3  72 W9        30.06R WCI  -2
$$

...SOUTHWEST WISCONSIN...


CITY           SKY/WX    TMP DP  RH WIND       PRES   REMARKS
LA CROSSE      CLEAR     17   8  67 W14       30.00R WCI   3
PRAIRIE DU CHI CLEAR     15   8  74 W6        30.04R WCI   6
BOSCOBEL       CLEAR     15   8  73 SW7       30.02S WCI   5
LONE ROCK      NOT AVBL
PLATTEVILLE    CLEAR     15  11  82 W14       30.00F WCI   1
FORT MC COY    CLEAR     14   9  80 W8        29.95S WCI   3
VIROQUA        FAIR      13  10  85 W9        29.94S WCI   1
WIS DELLS      CLEAR     14   9  78 W8        29.93R WCI   3
$$

...ELSEWHERE IN WISCONSIN...


CITY           SKY/WX    TMP DP  RH WIND       PRES   REMARKS
MILWAUKEE      CLEAR     19  10  68 W15       29.93S WCI   5
MADISON        CLEAR     16   9  74 W9        29.95S WCI   4
GREEN BAY      CLEAR     14   5  67 W12       29.86R WCI   0
EAU CLAIRE     NOT AVBL
BLACK RVR FLS  FAIR      14   7  72 W9        29.94R WCI   2
MEDFORD        FAIR       9   1  69 W13G18    29.82R WCI  -6
WAUSAU         CLEAR     10   2  69 W16       29.83R WCI  -7
WIS RAPIDS     MOCLDY    15   8  73 W12G21    29.89S WCI   2
MARSHFIELD     CLOUDY    15   8  73 W15       29.86R WCI   0
RICE LAKE      CLEAR      8  -1  66 W7        29.94R WCI  -4
$$

...NORTHEAST IOWA...


CITY           SKY/WX    TMP DP  RH WIND       PRES   REMARKS
DECORAH        CLEAR     10   7  85 W7        30.00R WCI   0
MASON CITY     CLEAR      9   5  84 W13       30.07R WCI  -7
CHARLES CITY   CLEAR     10   5  79 W10       30.05R WCI  -3
OELWEIN        CLEAR     14   7  73 W12       30.05R WCI   0
$$

...ELSEWHERE IN IOWA...


CITY           SKY/WX    TMP DP  RH WIND       PRES   REMARKS
DES MOINES     PTCLDY    19  10  68 W8        30.14S WCI   9
IOWA CITY      CLEAR     19  13  77 W9        30.12S WCI   8
FORT DODGE     CLEAR     12   7  79 W5        30.11S WCI   4
$$

...NORTHERN ILLINOIS...


CITY           SKY/WX    TMP DP  RH WIND       PRES   REMARKS
CHICAGO-OHARE  CLEAR     18  11  74 W14       29.99S WCI   4
CHICAGO-MIDWAY CLEAR     21  12  68 W15G22    30.01S WCI   8
MOLINE         CLEAR     20  11  68 W12       30.09S WCI   8
ROCKFORD       CLEAR     17  10  74 W13       30.02S WCI   4
PEORIA         CLEAR     20  10  65 W8        30.12S WCI  10
$$

NOTE: "FAIR" INDICATES FEW OR NO CLOUDS BELOW 12,000 FEET WITH NO
SIGNIFICANT WEATHER AND/OR OBSTRUCTIONS TO VISIBILITY. WIND
SPEEDS ARE IN MILES-PER-HOUR.



USA.gov is the U.S. government's official web portal to all federal, state and local government web resources and services.